{"data":{"norad_id":60924,"intl_designator":"2024-155A","name":"STARLINK-11239 [DTC]","alt_names":[],"object_type":"PAYLOAD","status":"ACTIVE","operator":null,"country":"US","launch_date":"2024-08-31","launch_site_code":"AFWTR","launch_vehicle":null,"mission":null,"orbit_class":"UNKNOWN","rcs_meters":null,"size_class":null,"mass_kg":null,"dimensions":null,"purposes":["comms"],"wikipedia_slug":null,"has_3d_model":false,"image_url":null,"decayed_at":null,"tle_current":{"epoch":"2026-09-21T18:24:06.030144Z","epoch_age_seconds":79123,"freshness":"FRESH","line1":"1 60924U 24155A   26264.76673646 -.00009537  00000+0 -73811-4 0  9992","line2":"2 60924  53.1579  95.0242 0000740  84.4216 275.6887 15.69755899119199","mean_motion":15.69755899,"eccentricity":7.4e-5,"inclination_deg":53.1579,"raan_deg":95.0242,"arg_perigee_deg":84.4216,"mean_anomaly_deg":275.6887,"bstar":-7.3811e-5,"rev_number":11919,"period_min":91.734007874558,"perigee_km":359.09681605319,"apogee_km":360.09400044961,"semimajor_km":6737.7324082514,"source":"CELESTRAK","updated_at":"2026-09-22T09:00:49.288082Z"}}}